User: anonymous   Login
Location: Unspecified
(0.0000°N, 0.0000°E)
Time: 08:15:32
(UTC+00:00)
Language:

YUBILEINY - Orbit

View from above orbital plane
View from above orbital plane
View from above satellite
View from above satellite

Ground track
Ground track

The orbit data is extracted from the following two-line orbital elements,

1 32953U 08025A   18348.00205938  .00000020  00000-0  75656-4 0  9993
2 32953  82.5045 260.8402 0018650 174.4123 185.7160 12.43086832479119
Epoch (UTC): 14 December 2018 00:02:57
Eccentricity: 0.0018650
inclination: 82.5045°
perigee height: 1479 km
apogee height: 1508 km
right ascension of ascending node: 260.8402°
argument of perigee: 174.4123°
revolutions per day: 12.43086832
mean anomaly at epoch: 185.7160°
orbit number at epoch: 47911

The dashed part of the orbit path shows where the satellite is in the earth's shadow,  

DLR